Terminal Aerodrome Forecast
Issued by NWS Topeka, KS

Home | Current Version | Previous Version | Text Only | Print | Product List | Glossary Off
Versions: 1 2 3 4 5 6 7 8 9 10 11 12 13 14 15 16 17 18

000
FTUS43 KTOP 220520
TAFTOP
TAF
KTOP 220520Z 2206/2306 27006KT P6SM -SHRA VCTS BKN035CB
      TEMPO 2208/2210 3SM TSRA BKN015CB
     FM221100 36008KT P6SM VCTS SCT015CB BKN050
     FM221500 36010KT P6SM SCT050=

USA.gov is the U.S. government's official web portal to all federal, state and local government web resources and services.